• Em Portugal
  • Lista de países
  • Para 7 dias
  • Temperatura da água
  • Mapas de satélite
  • Mapa do tempo
  • Widgets de tempo
  • user-avatar
    Iniciar Sessão

    Previsão horária em Nigde

    Hoje, 20 Setembro, Quinta-feira

    Tempo Temperatura Precipitação Vento Pressão Humidade
    00:00 +16°C° 0 mm 1 m/s 652 mmHg 48%
    01:00 +16°C° 0 mm 1 m/s 652 mmHg 50%
    02:00 +16°C° 0 mm 1 m/s 652 mmHg 50%
    03:00 +15°C° 0 mm 1 m/s 652 mmHg 52%
    04:00 +15°C° 0 mm 1 m/s 652 mmHg 54%
    05:00 +14°C° 0 mm 1 m/s 652 mmHg 55%
    06:00 +16°C° 0 mm 1 m/s 653 mmHg 50%
    07:00 +19°C° 0 mm 1 m/s 653 mmHg 44%
    08:00 +21°C° 0 mm 1 m/s 654 mmHg 39%
    09:00 +22°C° 0 mm 1 m/s 654 mmHg 35%
    10:00 +24°C° 0 mm 1 m/s 654 mmHg 31%
    11:00 +25°C° 0 mm 1 m/s 655 mmHg 27%
    12:00 +26°C° 0 mm 2 m/s 654 mmHg 26%
    13:00 +26°C° 0 mm 2 m/s 654 mmHg 25%
    14:00 +27°C° 0 mm 2 m/s 654 mmHg 24%
    15:00 +27°C° 0 mm 2 m/s 654 mmHg 25%
    16:00 +26°C° 0 mm 2 m/s 653 mmHg 26%
    17:00 +25°C° 0 mm 2 m/s 653 mmHg 28%
    18:00 +24°C° 0 mm 2 m/s 653 mmHg 31%
    19:00 +21°C° 0 mm 2 m/s 652 mmHg 34%
    20:00 +20°C° 0 mm 1 m/s 652 mmHg 37%
    21:00 +20°C° 0 mm 1 m/s 652 mmHg 38%
    22:00 +19°C° 0 mm 1 m/s 652 mmHg 39%
    23:00 +18°C° 0 mm 1 m/s 652 mmHg 41%

    Amanhã, 21 Setembro, Sexta-feira

    Tempo Temperatura Precipitação Vento Pressão Humidade
    00:00 +18°C° 0 mm 1 m/s 651 mmHg 41%
    01:00 +16°C° 0 mm 1 m/s 651 mmHg 42%
    02:00 +16°C° 0 mm 1 m/s 651 mmHg 43%
    03:00 +15°C° 0 mm 1 m/s 651 mmHg 44%
    04:00 +15°C° 0 mm 1 m/s 651 mmHg 45%
    05:00 +14°C° 0 mm 1 m/s 651 mmHg 46%
    06:00 +16°C° 0 mm 1 m/s 652 mmHg 42%
    07:00 +19°C° 0 mm 1 m/s 652 mmHg 38%
    08:00 +21°C° 0 mm 1 m/s 653 mmHg 34%
    09:00 +23°C° 0 mm 1 m/s 654 mmHg 31%
    10:00 +24°C° 0 mm 1 m/s 654 mmHg 28%
    11:00 +25°C° 0 mm 1 m/s 654 mmHg 26%
    12:00 +26°C° 0 mm 2 m/s 654 mmHg 24%
    13:00 +26°C° 0 mm 2 m/s 654 mmHg 23%
    14:00 +27°C° 0 mm 2 m/s 654 mmHg 21%
    15:00 +26°C° 0 mm 2 m/s 653 mmHg 22%
    16:00 +26°C° 0 mm 3 m/s 653 mmHg 23%
    17:00 +25°C° 0 mm 3 m/s 653 mmHg 24%
    18:00 +23°C° 0 mm 2 m/s 653 mmHg 26%
    19:00 +21°C° 0 mm 2 m/s 653 mmHg 29%
    20:00 +20°C° 0 mm 1 m/s 653 mmHg 32%
    21:00 +19°C° 0 mm 1 m/s 652 mmHg 32%
    22:00 +18°C° 0 mm 1 m/s 652 mmHg 32%
    23:00 +18°C° 0 mm 1 m/s 652 mmHg 33%

    Depois de amanhã, 22 Setembro, Sábado

    Tempo Temperatura Precipitação Vento Pressão Humidade
    00:00 +16°C° 0 mm 1 m/s 652 mmHg 33%
    01:00 +16°C° 0 mm 1 m/s 652 mmHg 34%
    02:00 +15°C° 0 mm 1 m/s 652 mmHg 34%
    03:00 +15°C° 0 mm 1 m/s 652 mmHg 36%
    04:00 +14°C° 0 mm 1 m/s 651 mmHg 38%
    05:00 +14°C° 0 mm 1 m/s 651 mmHg 39%
    06:00 +16°C° 0 mm 1 m/s 652 mmHg 35%
    07:00 +19°C° 0 mm 1 m/s 653 mmHg 31%
    08:00 +21°C° 0 mm 1 m/s 654 mmHg 27%
    09:00 +23°C° 0 mm 1 m/s 654 mmHg 25%
    10:00 +24°C° 0 mm 1 m/s 655 mmHg 22%
    11:00 +25°C° 0 mm 1 m/s 655 mmHg 20%
    12:00 +26°C° 0 mm 2 m/s 655 mmHg 19%
    13:00 +26°C° 0 mm 2 m/s 654 mmHg 17%
    14:00 +27°C° 0 mm 2 m/s 654 mmHg 16%
    15:00 +26°C° 0 mm 2 m/s 654 mmHg 17%
    16:00 +26°C° 0 mm 2 m/s 654 mmHg 18%
    17:00 +25°C° 0 mm 2 m/s 654 mmHg 19%
    18:00 +23°C° 0 mm 2 m/s 653 mmHg 22%
    19:00 +21°C° 0 mm 1 m/s 653 mmHg 25%
    20:00 +19°C° 0 mm 1 m/s 653 mmHg 28%
    21:00 +19°C° 0 mm 1 m/s 653 mmHg 28%
    22:00 +18°C° 0 mm 1 m/s 653 mmHg 28%
    23:00 +18°C° 0 mm 1 m/s 653 mmHg 28%

    23 Setembro, Domingo

    Tempo Temperatura Precipitação Vento Pressão Humidade
    00:00 +16°C° 0 mm 1 m/s 652 mmHg 29%
    01:00 +16°C° 0 mm 1 m/s 652 mmHg 30%
    02:00 +15°C° 0 mm 1 m/s 652 mmHg 30%
    03:00 +15°C° 0 mm 1 m/s 652 mmHg 33%
    04:00 +14°C° 0 mm 1 m/s 652 mmHg 35%
    05:00 +14°C° 0 mm 1 m/s 652 mmHg 38%
    06:00 +16°C° 0 mm 1 m/s 653 mmHg 34%
    07:00 +20°C° 0 mm 1 m/s 654 mmHg 29%
    08:00 +22°C° 0 mm 1 m/s 655 mmHg 25%
    09:00 +23°C° 0 mm 1 m/s 655 mmHg 23%
    10:00 +24°C° 0 mm 2 m/s 656 mmHg 21%
    11:00 +26°C° 0 mm 2 m/s 656 mmHg 19%
    12:00 +26°C° 0 mm 2 m/s 656 mmHg 18%
    13:00 +27°C° 0 mm 3 m/s 655 mmHg 17%
    14:00 +27°C° 0 mm 3 m/s 655 mmHg 16%
    15:00 +27°C° 0 mm 3 m/s 655 mmHg 17%
    16:00 +26°C° 0 mm 3 m/s 655 mmHg 18%
    17:00 +25°C° 0 mm 3 m/s 655 mmHg 19%
    18:00 +23°C° 0 mm 2 m/s 654 mmHg 22%
    19:00 +20°C° 0 mm 2 m/s 654 mmHg 25%
    20:00 +20°C° 0 mm 1 m/s 654 mmHg 28%
    21:00 +19°C° 0 mm 1 m/s 654 mmHg 30%
    22:00 +18°C° 0 mm 1 m/s 654 mmHg 32%
    23:00 +18°C° 0 mm 1 m/s 654 mmHg 34%

    24 Setembro, Segunda-feira

    Tempo Temperatura Precipitação Vento Pressão Humidade
    00:00 +16°C° 0 mm 1 m/s 654 mmHg 37%
    01:00 +16°C° 0 mm 1 m/s 654 mmHg 40%
    02:00 +15°C° 0 mm 1 m/s 653 mmHg 43%
    03:00 +15°C° 0 mm 1 m/s 653 mmHg 46%
    04:00 +15°C° 0 mm 1 m/s 653 mmHg 50%
    05:00 +14°C° 0 mm 1 m/s 653 mmHg 53%
    06:00 +16°C° 0 mm 1 m/s 654 mmHg 46%
    07:00 +19°C° 0 mm 1 m/s 654 mmHg 40%
    08:00 +21°C° 0 mm 1 m/s 655 mmHg 33%
    09:00 +23°C° 0 mm 1 m/s 655 mmHg 29%
    10:00 +24°C° 0 mm 1 m/s 655 mmHg 25%
    11:00 +26°C° 0 mm 1 m/s 655 mmHg 22%
    12:00 +26°C° 0 mm 1 m/s 655 mmHg 20%
    13:00 +27°C° 0 mm 2 m/s 655 mmHg 19%
    14:00 +28°C° 0 mm 2 m/s 654 mmHg 18%
    15:00 +27°C° 0 mm 2 m/s 654 mmHg 19%
    16:00 +27°C° 0 mm 2 m/s 654 mmHg 20%
    17:00 +26°C° 0 mm 2 m/s 654 mmHg 21%
    18:00 +24°C° 0 mm 2 m/s 653 mmHg 24%
    19:00 +22°C° 0 mm 1 m/s 653 mmHg 27%
    20:00 +20°C° 0 mm 1 m/s 653 mmHg 30%
    21:00 +20°C° 0 mm 1 m/s 652 mmHg 31%
    22:00 +19°C° 0 mm 1 m/s 652 mmHg 32%
    23:00 +18°C° 0 mm 1 m/s 652 mmHg 33%

    25 Setembro, Terça-feira

    Tempo Temperatura Precipitação Vento Pressão Humidade
    00:00 +18°C° 0 mm 1 m/s 652 mmHg 33%
    01:00 +18°C° 0 mm 1 m/s 652 mmHg 34%
    02:00 +16°C° 0 mm 1 m/s 651 mmHg 35%
    03:00 +16°C° 0 mm 1 m/s 651 mmHg 36%
    04:00 +16°C° 0 mm 1 m/s 651 mmHg 37%
    05:00 +15°C° 0 mm 1 m/s 651 mmHg 38%
    06:00 +18°C° 0 mm 1 m/s 652 mmHg 34%
    07:00 +21°C° 0 mm 1 m/s 653 mmHg 30%
    08:00 +23°C° 0 mm 1 m/s 653 mmHg 25%
    09:00 +24°C° 0 mm 1 m/s 654 mmHg 24%
    10:00 +26°C° 0 mm 1 m/s 654 mmHg 22%
    11:00 +27°C° 0 mm 2 m/s 654 mmHg 20%
    12:00 +27°C° 0 mm 2 m/s 654 mmHg 20%
    13:00 +28°C° 0 mm 2 m/s 653 mmHg 19%
    14:00 +29°C° 0 mm 2 m/s 653 mmHg 18%
    15:00 +28°C° 0 mm 2 m/s 653 mmHg 20%
    16:00 +27°C° 0 mm 2 m/s 652 mmHg 21%
    17:00 +27°C° 0 mm 2 m/s 652 mmHg 23%
    18:00 +25°C° 0 mm 2 m/s 651 mmHg 27%
    19:00 +23°C° 0 mm 1 m/s 651 mmHg 32%
    20:00 +21°C° 0 mm 1 m/s 651 mmHg 37%
    21:00 +20°C° 0 mm 1 m/s 651 mmHg 40%
    22:00 +19°C° 0 mm 1 m/s 650 mmHg 43%
    23:00 +18°C° 0 mm 1 m/s 650 mmHg 46%
    Mostrar mais